Location: Bessat
(45.8735°N, 1.9924°E)
Time: 19:00:04
(UTC+00:00)

Cosmos 858 Rocket - Pass Details

Date: 11 May 2021
Orbit: 755 x 775 km, 74.1° (Epoch: 21 June)

Event Time Altitude Azimuth Distance (km) Brightness Sun altitude
Exits shadow 22:24:16 59° 132° (SE) 875 4.4 -23.2°
Maximum altitude 22:24:43 62° 107° (ESE) 857 4.5 -23.3°
Drops below altitude 10° 22:29:52 10° 28° (NNE) 2,308 7.5 -23.6°
Sets 22:32:16 0° 25° (NNE) 3,242 8.4 -23.7°
